User: anonymous   Login
Location: Unspecified
(0.0000°N, 0.0000°E)
Time: 04:47:34
(UTC+00:00)
Language:

Explorer 7 - Orbit

View from above orbital plane
View from above orbital plane
View from above satellite
View from above satellite

Ground track
Ground track

The orbit data is extracted from the following two-line orbital elements,

1 00022U 59009A   16125.87234001  .00000506  00000-0  62334-4 0  9990
2 00022  50.2858 314.1605 0143852 276.3651  82.0931 14.93437082   315
Epoch (UTC): 04 May 2016 20:56:10
Eccentricity: 0.0143852
inclination: 50.2858°
perigee height: 487 km
apogee height: 687 km
right ascension of ascending node: 314.1605°
argument of perigee: 276.3651°
revolutions per day: 14.93437082
mean anomaly at epoch: 82.0931°
orbit number at epoch: 31

The dashed part of the orbit path shows where the satellite is in the earth's shadow,  

DLR